Regional Weather Roundup
Issued by NWS

Home | Current Version | Previous Version | Text Only | Print | Product List | Glossary On
Versions: 1 2 3 4 5 6 7 8 9 10 11 12 13 14 15 16 17 18 19 20 21 22 23 24 25 26 27 28 29 30 31 32 33 34 35 36 37 38 39 40 41 42 43 44 45 46 47 48 49 50
000
ASUS46 KSTO 171215
RWRCA

NORTHERN AND CENTRAL CA REGIONAL WEATHER ROUNDUP
NATIONAL WEATHER SERVICE SACRAMENTO CA
400 AM PST SUN DEC 17 2017

NOTE: FAIR INDICATES FEW OR NO CLOUDS BELOW 12,000 FEET WITH NO
SIGNIFICANT WEATHER AND/OR OBSTRUCTIONS TO VISIBILITY.

CAZ001-003-171300-
NORTHWEST AREA

CITY           SKY/WX    TMP DP  RH WIND       PRES   REMARKS
CRESCENT CITY  CLEAR     47  33  58 NE6       30.18F
UKIAH          MOCLDY    36  31  82 CALM      30.06S
$$

CAZ006-505>513-171300-
BAY AREA

CITY           SKY/WX    TMP DP  RH WIND       PRES   REMARKS
SANTA ROSA     MOCLDY    47  32  56 N9        29.99F
SAN RAFAEL     N/A       54  MM  MM MISG
NAPA           PTCLDY    55  17  22 N18G24    29.99F
CONCORD        CLEAR     41  27  57 SE8       30.01S
OAKLAND CITY   N/A      MM  MM  MM MISG
OAKLAND        MOCLDY    51  18  27 CALM      30.00S
SAN FRAN CITY  N/A       57  MM  20 MISG
SAN FRAN ARPT  CLEAR     55  28  35 N12       30.00S
LIVERMORE      CLEAR     52  17  25 N16G30    29.97F
HAYWARD        CLEAR     50  15  24 CALM      29.99S
REDWOOD CITY   N/A       43  MM  55 MISG
MOFFETT ARPT   CLEAR     48  25  40 CALM      30.01S
SAN JOSE ARPT  CLEAR     52  18  26 W6        30.00R
$$
CAZ034-037-514>518-171300-
CENTRAL COAST

CITY           SKY/WX    TMP DP  RH WIND       PRES   REMARKS
WATSONVILLE    PTCLDY    44  25  47 CALM      29.97R
SALINAS        CLEAR     45  20  36 CALM      29.98R
MONTEREY       PTCLDY    48  20  32 E9        29.98R
SAN LUIS OBISP PTCLDY    44  17  33 S5        29.91F
SANTA MARIA    CLEAR     54  25  32 N14       29.89F
$$
CAZ015-016-171300-
NORTHERN SACRAMENTO VALLEY

CITY           SKY/WX    TMP DP  RH WIND       PRES   REMARKS
REDDING        CLEAR     51  17  26 N9        30.14S
RED BLUFF      PTCLDY    52  18  26 N17G30    30.12S
OROVILLE       CLEAR     44  24  45 NW13      30.07R
$$
CAZ016>018-171300-
SOUTHERN SACRAMENTO VALLEY

CITY           SKY/WX    TMP DP  RH WIND       PRES   REMARKS
AUBURN         PTCLDY    46  18  31 NE5       29.97F
BEALE AFB      PTCLDY    47  24  40 NW16      29.99S
LINCOLN        FAIR      43  27  52 N8        29.98F
MARYSVILLE     CLEAR     48  24  39 NW18G29   30.02S
SAC INTL ARPT  PTCLDY    48  24  39 NW23G30   29.99S
MATHER AIRPORT NOT AVBL
DOWNTOWN SAC   N/A       48  MM  MM MISG
SAC EXEC ARPT  PTCLDY    46  24  42 NW8       29.99F
VACAVILLE      CLEAR     52  18  26 N23G30    30.01S
TRAVIS AFB     CLEAR     53  18  25 N18G31    29.96F
$$
CAZ019>021-171300-
SAN JOAQUIN VALLEY

CITY           SKY/WX    TMP DP  RH WIND       PRES   REMARKS
STOCKTON       MOCLDY    43  22  43 NW7       29.99R
MODESTO        MOCLDY    47  23  38 W9        29.99S
MERCED         PTCLDY    39  24  55 N3        29.99S
LEMOORE        PTCLDY   N/A N/A N/A NW10      30.00S
FRESNO         PTCLDY    41  34  76 S3        29.98F HAZE
HANFORD        PTCLDY    33  32  96 CALM      29.99S FOG
PORTERVILLE    PTCLDY    38  32  79 SE5       29.99S WCI  34
BAKERSFIELD    CLEAR     43  29  57 SE7       29.99S
$$
CAZ011-012-071-171300-
NORTHERN MOUNTAINS

CITY           SKY/WX    TMP DP  RH WIND       PRES   REMARKS
YREKA          PTCLDY    20  17  88 CALM      30.28S
MOUNT SHASTA   CLEAR     32  18  56 N6        30.20F WCI  26
ALTURAS        CLEAR     19  15  84 CALM      30.23S
$$
CAZ011-012-071-171300-
SIERRA NEVADA MTNS

CITY           SKY/WX    TMP DP  RH WIND       PRES   REMARKS
BLUE CANYON    PTCLDY    40   1  19 VRB5      29.98R
TRUCKEE        PTCLDY    16  10  79 NW3       30.15S
TAHOE VLY ARPT PTCLDY    22  13  68 CALM      30.11R
MAMMOTH LAKES  FAIR      18  10  70 W15       30.11R WCI   4
$$



USA.gov is the U.S. government's official web portal to all federal, state and local government web resources and services.